Location: Arezzo
(43.4170°N, 11.8830°E)
Time: 20:36:09
(UTC+02:00)

STARLINK-2735 - Visible Passes

Search period start: 21 October 2021 00:00
Search period end: 31 October 2021 00:00
Orbit: 546 x 548 km, 53.1° (Epoch: 21 October)

Date Brightness Start Highest point End Pass type
(mag) Time Alt. Az. Time Alt. Az. Time Alt. Az.
24 Oct 4.2 07:06:40 10° SW 07:10:44 62° SE 07:14:49 10° ENE visible
25 Oct 6.5 05:23:37 10° SSE 05:25:31 13° SE 05:27:24 10° E visible
25 Oct 3.7 07:00:19 10° SW 07:04:26 81° SE 07:08:34 10° NE visible
26 Oct 6.1 05:17:20 14° SSE 05:19:05 17° SE 05:21:50 10° E visible
26 Oct 3.6 06:54:02 10° WSW 06:58:10 79° NW 07:02:18 10° NE visible
27 Oct 5.6 05:12:12 23° SE 05:12:42 23° SE 05:15:58 10° ENE visible
27 Oct 3.7 06:47:52 10° WSW 06:51:55 62° NNW 06:56:01 10° NE visible
28 Oct 5.3 05:06:53 29° ESE 05:06:53 29° ESE 05:09:58 10° ENE visible
28 Oct 3.9 06:42:31 15° WSW 06:45:42 50° NNW 06:49:45 10° NE visible
29 Oct 5.5 05:01:25 29° E 05:01:25 29° E 05:03:52 10° ENE visible
29 Oct 4.2 06:37:03 20° W 06:39:31 41° NNW 06:43:27 10° NE visible
30 Oct 5.8 04:55:50 25° ENE 04:55:50 25° ENE 04:57:43 10° ENE visible
30 Oct 4.4 06:31:27 23° WNW 06:33:22 35° NNW 06:37:11 10° NE visible
